Weather in Koktogay

Kazakhstan     48°07′50″N   51°32′06″E
temp.,
°C
wind,
m/s
gust,
m/s
humid.,
%
clouds,
%
prec.,
mm/h
press.,
hPa
HPBL,
m
13 april, tue
tue1323:00+16ene511290 0.0 1029186
02:00+14e511380 0.0 1029177
05:00+12e511434 0.0 1029168
08:00+12e611450 0.0 1030228
11:00+18e79280 0.0 1031688
14:00+21e79170 0.0 10301218
17:00+23e89130 0.0 10281503
20:00+20e711190 0.0 1027308
14 april, wed
wed1423:00+16e714290 0.0 1027326
02:00+14e714340 0.0 1026279
05:00+12e612410 0.0 1025230
08:00+11e712460 0.0 1025293
11:00+18ese810310 0.0 1024660
14:00+23ese89230 0.0 10221710
17:00+24ese89195 0.0 10202277
20:00+22ese69255 0.0 1020196
15 april, thu
thu1523:00+18e613355 0.0 1020237
02:00+16ese71339100 0.0 1019266
05:00+14ese5123932 0.0 1019237
08:00+14e512422 0.0 1019314
11:00+20ese810225 0.0 10191192
14:00+23ese81014100 0.0 10172081
17:00+24ese8912100 0.0 10152554
20:00+21e4718100 0.0 1014125
16 april, fri
fri1623:00+18ene51127100 0.0 1014227
02:00+16ene51235100 0.0 1013235
05:00+15e4937100 0.0 1013154
08:00+14ene4740100 0.0 1014150
11:00+19e4427100 0.0 1014443
14:00+22ene4421100 0.0 10141985
17:00+23nne441880 0.0 10142545
20:00+20nne462655 0.0 1014120
17 april, sat
sat1723:00+17ne443355 0.0 101542
02:00+15ne333864 0.0 101628
05:00+13ne334449 0.0 101618
08:00+14ne33445 0.0 101776
11:00+20ne34275 0.0 1018697
14:00+22ne322223 0.0 10172254
17:00+23n32204 0.0 10172753
20:00+21nne452566 0.0 101799